This demonstration page uses our WeatherBlox Daily Observations layout. Learn more.

Left ArrowRight Arrow

Hourly Observations for July 2, 2022

Temp ( °F °C ) Dew Point ( °F °C ) Humidity (%) Winds ( mph kmh ) Pressure ( in mb ) Visibility ( mi km ) Precip ( " mm )
12:53 am 00:53 Partly Cloudy 67 19.4 60 15.6 79 79 E 6 9 30.01 1016 10 16 0.00 0.00
1:53 am 01:53 Mostly Clear 65 18.3 60 15.6 84 84 ENE 6 9 29.99 1016 10 16 0.00 0.00
2:53 am 02:53 Cloudy 65 18.3 59 15 81 81 E 5 7 29.99 1016 10 16 0.00 0.00
3:53 am 03:53 Cloudy 67 19.4 59 15 76 76 SE 9 15 29.98 1015 10 16 0.00 0.00
4:07 am 04:07 Cloudy with Nearby Thunderstorms 66 18.9 59 15 78 78 SE 8 13 29.97 1015 10 16 0.00 0.00
4:22 am 04:22 Cloudy with Heavy Rain 64 17.8 61 16.1 90 90 ESE 8 13 29.99 1016 3 5 0.05 1.27
4:35 am 04:35 Cloudy with Nearby Thunderstorms 64 17.8 62 16.7 93 93 SE 6 9 29.98 1015 3 5 0.12 3.05
4:42 am 04:42 Cloudy with Nearby Thunderstorms 64 17.8 62 16.7 93 93 SSE 5 7 29.99 1016 2 3 0.19 4.83
4:48 am 04:48 Cloudy with Nearby Thunderstorms 64 18 63 17 94 94 Calm 30.00 1016 3 5 0.21 5.33
4:49 am 04:49 Cloudy with Nearby Thunderstorms 64 17.8 62 16.7 93 93 Calm 30.00 1016 3 5 0.22 5.59
4:57 am 04:57 Cloudy with Light Rain 64 17.8 62 16.7 93 93 N 5 7 29.99 1016 5 8 0.00 0.00
5:14 am 05:14 Cloudy with Nearby Thunderstorms 64 17.8 62 16.7 93 93 ENE 3 6 29.99 1016 5 8 0.02 0.51
5:29 am 05:29 Cloudy with Light Rain 64 17.8 63 17.2 96 96 Calm 29.99 1016 6 10 0.03 0.76
5:39 am 05:39 Cloudy 64 17.8 62 16.7 93 93 NNW 3 6 30.00 1016 7 11 0.03 0.76
5:53 am 05:53 Cloudy with Mist and Fog 64 17.8 63 17.2 96 96 Calm 29.99 1016 6 10 0.03 0.76
6:03 am 06:03 Mostly Cloudy with Mist and Fog 64 17.8 62 16.7 93 93 E 3 6 29.99 1016 6 10 0.00 0.00
6:53 am 06:53 Partly Cloudy with Mist and Fog 64 17.8 63 17.2 96 96 SSE 7 11 29.98 1015 5 8 0.00 0.00
7:33 am 07:33 Mostly Cloudy with Mist and Fog 64 18 64 18 100 100 SSE 13 20 29.95 1014 4 6 0.00 0.00
7:45 am 07:45 Mostly Cloudy with Mist and Fog 66 18.9 65 18.3 96 96 VRB 6 9 29.96 1015 6 10 0.00 0.00
7:53 am 07:53 Mostly Cloudy 66 18.9 65 18.3 96 96 Calm 29.99 1016 7 11 0.00 0.00
8:30 am 08:30 Cloudy 67 19.4 65 18.3 93 93 SSE 10 17 29.98 1015 10 16 0.00 0.00
8:53 am 08:53 Cloudy 67 19.4 65 18.3 93 93 SSE 8 13 30.01 1016 10 16 0.00 0.00
9:27 am 09:27 Cloudy 69 20.6 66 18.9 90 90 SE 8 13 29.98 1015 10 16 0.00 0.00
10:53 am 10:53 Cloudy 73 22.8 65 18.3 76 76 SSE 10 17 29.99 1016 10 16 0.00 0.00
11:53 am 11:53 Mostly Cloudy 75 23.9 65 18.3 71 71 ESE 9 15 29.99 1016 10 16 0.00 0.00
12:53 pm 12:53 Mostly Cloudy 77 25 65 18.3 66 66 SSE 6 9 30.00 1016 10 16 0.00 0.00
1:53 pm 13:53 Mostly Cloudy 80 26.7 66 18.9 62 62 E 6 9 29.99 1016 10 16 0.00 0.00
2:06 pm 14:06 Partly Cloudy 80 26.7 65 18.3 60 60 ENE 6 9 29.93 1014 10 16 0.00 0.00
2:53 pm 14:53 Partly Cloudy 80 26.7 65 18.3 60 60 VRB 3 6 29.98 1015 10 16 0.00 0.00
3:53 pm 15:53 Mostly Cloudy 82 27.8 65 18.3 56 56 E 8 13 29.98 1015 10 16 0.00 0.00
4:53 pm 16:53 Mostly Cloudy 80 26.7 65 18.3 60 60 E 10 17 29.98 1015 10 16 0.00 0.00
5:53 pm 17:53 Partly Cloudy 82 27.8 66 18.9 58 58 E 8 13 29.97 1015 10 16 0.00 0.00
6:53 pm 18:53 Sunny 81 27.2 66 18.9 61 61 ESE 8 13 29.96 1014 10 16 0.00 0.00
7:53 pm 19:53 Sunny 79 26.1 65 18.3 62 62 ESE 9 15 29.96 1015 10 16 0.00 0.00
8:53 pm 20:53 Sunny 76 24.4 66 18.9 72 72 SE 7 11 29.97 1015 10 16 0.00 0.00
9:53 pm 21:53 Clear 74 23.3 66 18.9 76 76 SE 6 9 29.98 1015 10 16 0.00 0.00
10:53 pm 22:53 Clear 73 22.8 66 18.9 79 79 SE 8 13 30.00 1016 10 16 0.00 0.00
11:53 pm 23:53 Clear 71 21.7 67 19.4 87 87 SE 7 11 30.00 1016 10 16 0.00 0.00

Powered by AerisWeather